SCP
0 0 0 0 0 0 0 0 0 -0 0 0 0 0 0 -0 -0 -0 -0 -0 -0 0 0 0 0 0 0 0 0 0 0 0 0 0 0 0 0 0 0 0 0 0 0 0
0 0 0 0 0 0 0 0 -0 -0 -0 0 0 -0 0 -0 -0 -0 -0 -0 0 0 0 0 0 0 0 0 0 0 0 0 0 0 0 0 0 0 0 0 0 0 0 0
0 0 0 0 0 0 0 0 -0 0 -0 0 -0 -0 -0 -0 -0 0 -0 0 0 0 0 0 0 0 0 0 0 0 0 0 0 0 0 0 0 0 0 0 0 0 0 0
0 0 0 0 0 0 0 0 0 -0 0 0 0 -0 0 -0 0 -0 -0 0 0 0 0 0 0 0 0 0 0 0 0 0 0 0 0 0 0 0 0 0 0 0 0 0
0 0 0 0 -0 0 0 0 0 0 0 0 0 -0 -0 0 -0 -0 -0 0 -0 -0 0 0 0 0 0 0 0 0 0 0 0 0 0 0 0 0 0 0 0 0 0 0
0 0 0 0 0 0 0 0 0 0 0 -0 -0 0 0 -0 0 0 -0 0 0 0 0 0 0 0 0 0 0 0 0 0 0 0 0 0 0 0 0 0 0 0 0 -0
0 0 0 0 0 0 0 0 0 0 0 -0 -0 -0 0 0 0 -0 -0 0 0 0 0 -0 -0 0 0 0 0 0 0 0 0 0 0 0 0 0 0 0 0 0 0 -0
0 0 0 0 0 0 0 0 0 0 0 0 0 -0 -0 0 -0 -0 -0 0 -0 0 0 0 0 0 0 0 0 0 0 0 0 0 0 0 0 0 0 0 0 0 -0 -0
0 0 0 0 0 0 0 0 0 0 0 0 0 0 0 0 0 -0 -0 -0 -0 0 0 0 0 0 0 0 0 0 0 0 0 0 0 0 0 0 0 0 0 0 -0 -0
0 0 0 0 0 0 0 0 0 0 0 0 0 0 -0 0 -0 -0 -0 -0 0 0 0 0 0 0 0 0 0 0 0 0 0 0 0 0 0 0 0 0 0 0 -0 0
0 0 0 0 0 0 0 -0 0 0 0 0 -0 -0 0 0 -0 -0 -0 -0 -0 0 -0 -0 0 0 0 0 0 0 0 0 0 0 0 0 0 0 0 0 0 0 0 0
0 0 0 0 0 0 0 0 0 0 0 0 0 0 0 -0 -0 -0 -0 -0 0 0 -0 -0 0 0 0 -0 0 0 0 0 0 0 0 0 0 0 0 0 0 0 0 0
0 0 -0 -0 0 0 0 -0 0 0 0 0 0 0 0 0 0 -0 -0 -0 0 0 0 0 0 -0 0 -0 0 0 -0 -0 0 0 -0 -0 0 0 0 0 0 0 0 0
0 0 0 -0 0 0 0 0 0 0 0 -0 -0 0 0 0 0 0 -0 -0 -0 0 -0 -0 -0 -0 -0 -0 -0 0 -0 -0 0 -0 -0 -0 0 0 0 0 0 0 0 0
0 0 0 -0 -0 0 0 0 0 0 -0 -0 -0 0 0 0 0 -0 -0 -0 -0 -0 -0 -0 -0 -0 -0 -0 -0 0 -0 -0 0 -0 -0 -0 0 0 0 0 0 0 0 0
0 0 0 -0 -0 0 0 0 0 0 0 0 0 0 0 0 0 0 -0 -0 -0 -0 -0 -0 -0 -0 -0 -0 -0 -0 -0 -0 -0 -0 -0 -0 -0 0 0 0 -0 0 0 0
0 0 0 -0 0 0 0 0 0 0 0 0 0 0 0 0 0 -0 -0 -0 -0 -0 -0 -0 -0 -0 -0 -0 -0 -0 -0 -0 -0 -0 -0 0 -0 0 0 0 -0 -0 0 0
0 0 0 -0 0 0 0 0 0 0 0 0 0 0 0 0 0 -0 -0 -0 -0 -0 -0 -0 -0 -0 -0 0 0 0 -0 -0 -0 -0 0 0 -0 -0 0 0 -0 0 0 0
0 0 0 0 0 0 0 0 0 0 0 0 0 0 0 0 0 0 0 -0 -0 -0 -0 -0 -0 -0 -0 -0 -0 -0 -0 -0 -0 0 0 0 -0 -0 0 0 0 0 0 0
0 0 0 0 0 0 0 0 0 0 0 0 0 0 0 0 0 -0 0 -0 -0 -0 -0 -0 -0 -0 -0 0 -0 -0 -0 -0 -0 -0 -0 0 -0 -0 0 0 0 0 0 0
0 0 0 0 0 0 0 0 0 0 0 0 0 0 0 0 0 0 0 -0 -0 -0 -0 -0 -0 -0 -0 -0 -0 -0 -0 -0 -0 -0 0 0 0 0 0 0 0 0 0 0
0 0 0 0 0 0 0 0 0 0 0 0 0 0 0 -0 0 0 0 -0 -0 -0 -0 -0 -0 -0 -0 -0 -0 -0 -0 -0 -0 -0 -0 0 0 0 0 0 0 0 0 0
0 0 0 0 0 0 0 0 0 0 0 0 0 0 0 0 -0 0 0 0 -0 -0 -0 -0 -0 -0 -0 -0 -0 -0 -0 -0 -0 -0 -0 0 0 0 0 0 0 0 0 0
0 0 0 0 0 0 0 0 0 0 0 0 0 0 0 0 0 0 0 0 0 0 0 -0 -0 -0 -0 -0 -0 -0 -0 -0 -0 -0 -0 0 -0 -0 0 0 0 0 0 0
-0 0 0 0 0 0 0 0 0 0 0 0 0 0 0 0 0 0 0 0 0 0 0 0 -0 -0 -0 -0 -0 -0 -0 -0 -0 -0 0 0 0 -0 0 0 0 0 0 0
-0 -0 0 0 0 0 0 0 0 0 0 0 0 0 0 0 0 0 0 0 0 0 0 0 0 0 -0 -0 -0 -0 -0 -0 0 -0 0 0 0 0 0 0 0 0 0 0
Wind_Speed_500mb
35 17 37 44 37 26 26 20 33 33 11 15 17 18 34 47 37 42 56 68 72 81 76 70 83 73 74 65 54 40 28 24 18 14 9 10 19 25 23 22 16 18 21 20
13 50 34 19 26 30 25 21 34 31 33 7 26 30 34 36 31 51 66 64 70 63 53 45 59 73 80 68 48 34 28 22 18 12 8 13 21 20 26 19 14 17 20 19
46 29 30 32 26 31 34 39 39 37 22 14 19 24 34 39 30 48 50 50 45 51 45 47 59 78 76 62 44 32 29 21 16 9 6 13 18 23 25 18 12 18 13 9
34 46 26 46 40 38 37 36 39 32 16 18 8 10 11 16 22 14 30 29 45 46 49 50 71 80 72 52 36 33 27 19 13 9 6 12 18 24 18 13 11 7 2 5
36 36 51 36 58 37 38 25 26 16 16 11 36 8 11 9 19 21 21 33 36 33 42 56 71 79 61 43 36 33 25 17 12 14 9 10 18 20 13 10 7 3 4 8
35 30 36 55 16 36 18 7 7 14 3 18 41 10 22 12 17 11 11 23 18 31 45 57 69 64 48 38 36 32 25 15 13 14 8 12 17 16 13 12 10 9 12 15
15 41 11 24 43 25 21 12 5 6 9 16 16 11 29 21 21 24 20 12 23 37 47 59 68 63 49 42 39 32 25 16 14 16 9 11 16 13 15 16 12 5 10 21
26 21 53 28 40 25 47 33 12 12 8 9 14 15 22 20 26 47 42 22 35 40 46 55 68 59 48 43 39 32 21 18 16 16 9 5 14 11 13 17 12 2 14 22
28 28 5 42 21 38 27 30 25 5 1 3 8 14 18 6 6 7 13 36 44 47 53 60 63 54 46 43 40 30 23 19 21 15 7 2 4 13 13 19 12 7 16 23
5 2 17 32 37 38 18 18 19 7 9 7 9 9 13 6 7 9 14 21 38 46 52 59 63 54 42 39 35 28 21 20 22 15 9 4 3 14 16 16 12 12 17 24
9 4 9 29 34 43 12 32 5 15 11 12 2 13 15 19 18 23 19 41 53 57 60 65 63 51 40 38 34 27 25 25 20 15 11 8 1 11 11 12 6 11 13 20
14 11 24 19 4 36 47 39 40 16 16 4 9 24 8 14 18 17 21 47 53 60 63 65 62 52 46 43 36 31 28 28 23 17 17 9 4 8 8 11 4 7 16 21
20 11 8 8 11 8 30 46 32 13 7 13 11 17 2 8 15 32 32 49 56 60 62 64 63 57 52 47 38 37 31 26 23 19 19 12 4 5 8 10 10 11 19 23
17 10 31 30 13 10 10 35 37 29 19 23 19 11 6 6 15 13 27 51 63 65 69 67 65 60 55 50 41 37 35 29 26 22 22 16 5 9 8 10 18 20 26 30
9 8 12 42 38 11 11 22 40 41 40 30 31 18 14 16 20 31 47 49 55 60 66 68 68 62 59 55 43 34 37 34 31 24 23 17 17 15 16 16 27 29 31 30
13 9 21 15 30 47 38 10 39 41 23 21 16 17 15 15 25 23 45 54 57 67 74 71 68 63 62 58 47 40 42 37 35 27 24 20 27 20 19 22 35 32 28 26
5 9 20 16 18 17 30 45 15 21 18 28 15 17 14 9 21 29 46 62 66 73 79 77 72 67 62 60 51 47 44 39 38 31 26 30 31 19 20 20 28 27 24 19
15 11 7 10 5 15 19 15 29 20 17 20 5 19 26 25 60 69 81 83 71 72 78 75 72 68 61 58 55 49 44 42 40 38 30 34 34 28 28 19 21 22 24 19
23 10 7 5 7 8 6 15 13 5 11 15 16 17 18 37 32 16 65 80 80 73 74 73 67 63 57 58 57 54 51 45 44 44 37 37 36 37 29 25 24 18 15 17
25 25 6 8 5 15 10 36 41 21 6 31 34 27 4 29 17 12 68 75 76 72 66 71 67 66 60 60 60 60 58 53 53 47 42 36 44 41 33 26 21 20 13 9
16 2 10 5 8 5 32 43 50 16 10 42 51 44 37 14 33 73 75 82 79 73 65 66 71 69 65 64 66 65 63 59 50 49 44 38 47 47 39 31 27 22 21 10
4 11 3 3 6 5 52 18 16 12 31 44 57 49 47 51 54 62 66 73 83 81 66 64 70 71 71 68 71 70 67 52 50 55 49 44 46 53 46 37 33 26 21 20
5 6 7 6 7 4 30 8 17 22 30 46 54 63 54 41 51 61 67 74 86 91 76 69 70 74 74 74 74 74 66 58 56 59 53 51 46 50 46 46 41 36 28 24
3 7 4 16 3 15 30 14 34 43 44 55 58 55 52 30 20 56 69 81 86 96 85 78 76 77 78 80 78 69 68 62 60 62 54 54 58 54 54 48 46 43 38 31
7 6 6 10 23 33 22 50 60 58 62 62 72 64 55 47 15 20 66 83 88 96 90 83 82 79 77 76 80 76 72 68 67 62 58 56 60 62 59 58 51 46 42 34
10 6 2 5 32 25 28 52 71 47 57 62 72 75 72 61 47 3 44 76 87 90 95 91 86 81 76 76 80 78 76 74 73 71 68 60 60 68 64 64 62 54 43 35
Wind_Direction_500mb
191 198 212 206 209 213 225 238 247 261 231 229 237 250 275 285 291 278 280 268 255 245 239 235 231 225 205 202 200 201 211 208 215 215 248 313 326 326 327 323 294 288 280 271
199 227 214 212 214 222 235 253 259 279 267 261 278 274 274 286 278 275 268 262 254 242 239 232 224 208 200 199 192 200 202 202 196 217 255 314 321 327 327 324 300 295 284 268
205 226 206 213 218 221 227 232 249 250 292 219 277 280 279 280 291 279 259 260 252 248 253 229 205 197 194 194 189 202 198 192 192 213 265 311 324 322 324 330 303 299 298 262
228 222 193 210 228 216 234 222 242 254 274 272 126 286 292 280 289 285 261 230 247 250 243 215 196 189 191 185 190 195 191 184 193 210 254 314 333 334 331 341 330 305 334 179
208 204 222 231 220 209 239 228 245 252 254 299 275 271 259 269 285 267 265 245 244 242 217 201 193 189 181 181 191 187 182 178 211 222 263 320 339 346 345 349 328 306 204 188
219 212 213 223 210 219 241 237 276 261 209 256 262 164 281 233 227 264 258 283 264 193 191 193 187 177 174 180 185 183 180 189 207 211 238 324 335 343 356 348 330 301 237 194
183 229 228 185 219 218 197 118 267 300 203 228 224 189 238 260 244 241 242 232 182 183 186 188 179 176 176 182 180 180 185 208 202 192 221 323 342 343 8 360 343 310 185 182
194 214 213 203 206 193 212 192 178 203 187 218 187 234 253 236 253 243 241 232 174 179 189 186 179 174 180 180 180 179 193 188 201 199 201 321 341 356 359 355 10 85 170 174
200 231 227 201 198 191 207 206 187 346 199 73 209 286 315 234 269 193 156 169 177 186 189 183 176 180 181 181 180 182 178 172 189 194 219 213 10 19 6 7 24 118 158 171
235 197 212 206 200 214 173 153 194 199 220 237 262 251 230 266 215 187 157 166 176 184 183 179 179 180 181 181 178 183 176 175 185 182 161 135 22 10 19 20 61 113 137 161
226 155 293 179 199 195 171 229 201 163 182 182 156 258 212 220 190 192 199 178 181 184 182 179 180 179 176 176 180 184 179 188 188 181 176 203 286 356 19 17 80 79 150 163
302 213 250 209 220 190 202 206 212 207 212 232 168 257 248 214 197 168 186 182 185 189 180 181 179 177 179 178 180 185 185 194 188 188 188 177 233 345 22 20 106 108 135 157
341 262 240 6 272 183 205 205 202 209 93 212 162 257 286 192 187 181 174 182 187 185 180 181 180 180 184 182 182 187 186 185 184 188 184 182 218 24 32 20 132 126 131 138
339 262 226 221 206 166 171 197 198 196 211 223 234 262 211 141 153 157 175 186 186 182 182 182 183 185 189 187 186 187 186 187 187 182 189 180 132 99 45 56 129 125 122 128
13 269 285 244 232 281 195 180 199 204 209 198 231 208 212 187 183 200 183 179 176 181 185 186 189 189 193 191 187 184 188 190 189 185 188 180 154 119 84 87 122 128 122 125
351 288 337 267 224 228 252 256 197 205 204 215 175 216 202 182 112 144 179 172 180 186 190 191 193 194 197 193 187 183 185 189 190 189 186 174 160 143 103 95 124 120 122 132
254 355 351 267 226 216 247 238 213 213 195 182 169 214 150 124 171 180 183 187 187 191 191 193 196 197 199 195 187 182 184 186 193 191 184 175 172 176 148 108 122 112 102 119
262 273 229 276 239 193 242 198 210 204 200 219 127 168 171 173 196 200 202 194 196 196 194 197 197 198 200 197 191 182 183 188 194 191 187 182 181 183 175 161 133 115 94 97
296 186 250 242 221 280 183 38 17 153 243 26 309 185 194 181 162 213 208 204 201 202 204 197 196 196 197 196 191 185 187 193 196 193 189 187 183 183 180 182 182 160 116 90
354 175 168 340 266 193 15 323 318 292 137 3 358 332 184 138 167 229 210 209 205 207 207 198 197 199 199 197 193 190 191 196 200 195 189 188 187 189 189 194 193 180 160 98
350 106 231 318 275 4 340 320 309 125 286 325 332 329 288 187 192 210 210 212 205 205 209 198 201 201 198 197 195 196 195 199 199 195 188 187 192 193 197 193 192 192 187 168
310 315 3 218 283 283 344 8 53 291 318 324 326 321 310 265 211 205 200 204 200 204 205 203 204 206 204 200 198 199 200 196 197 197 190 190 194 194 200 204 199 201 211 198
224 319 324 321 352 302 357 69 9 359 334 335 325 324 334 290 245 203 201 196 198 200 205 206 205 209 208 204 203 204 204 197 196 199 194 194 192 191 194 202 204 206 207 216
232 308 281 327 103 294 294 312 1 358 345 340 337 337 350 337 237 226 200 194 198 201 204 208 208 213 211 207 207 210 205 198 197 200 197 197 201 197 194 197 204 211 214 217
218 228 345 309 293 327 184 333 339 337 347 348 356 356 347 13 51 214 214 199 201 203 205 211 213 215 218 211 209 212 210 202 199 198 200 200 208 206 203 207 207 210 217 226
193 175 162 236 291 296 280 310 321 321 342 352 359 354 7 16 29 320 220 210 205 207 204 211 216 219 219 218 212 212 211 206 202 198 202 203 207 210 211 213 216 218 223 229
Wind_Speed_850mb
35 17 37 44 37 26 26 20 33 33 11 15 17 18 34 47 37 42 56 68 72 81 76 70 83 73 74 65 54 40 28 24 18 14 9 10 19 25 23 22 16 18 21 20
13 50 34 19 26 30 25 21 34 31 33 7 26 30 34 36 31 51 66 64 70 63 53 45 59 73 80 68 48 34 28 22 18 12 8 13 21 20 26 19 14 17 20 19
46 29 30 32 26 31 34 39 39 37 22 14 19 24 34 39 30 48 50 50 45 51 45 47 59 78 76 62 44 32 29 21 16 9 6 13 18 23 25 18 12 18 13 9
34 46 26 46 40 38 37 36 39 32 16 18 8 10 11 16 22 14 30 29 45 46 49 50 71 80 72 52 36 33 27 19 13 9 6 12 18 24 18 13 11 7 2 5
36 36 51 36 58 37 38 25 26 16 16 11 36 8 11 9 19 21 21 33 36 33 42 56 71 79 61 43 36 33 25 17 12 14 9 10 18 20 13 10 7 3 4 8
35 30 36 55 16 36 18 7 7 14 3 18 41 10 22 12 17 11 11 23 18 31 45 57 69 64 48 38 36 32 25 15 13 14 8 12 17 16 13 12 10 9 12 15
15 41 11 24 43 25 21 12 5 6 9 16 16 11 29 21 21 24 20 12 23 37 47 59 68 63 49 42 39 32 25 16 14 16 9 11 16 13 15 16 12 5 10 21
26 21 53 28 40 25 47 33 12 12 8 9 14 15 22 20 26 47 42 22 35 40 46 55 68 59 48 43 39 32 21 18 16 16 9 5 14 11 13 17 12 2 14 22
28 28 5 42 21 38 27 30 25 5 1 3 8 14 18 6 6 7 13 36 44 47 53 60 63 54 46 43 40 30 23 19 21 15 7 2 4 13 13 19 12 7 16 23
5 2 17 32 37 38 18 18 19 7 9 7 9 9 13 6 7 9 14 21 38 46 52 59 63 54 42 39 35 28 21 20 22 15 9 4 3 14 16 16 12 12 17 24
9 4 9 29 34 43 12 32 5 15 11 12 2 13 15 19 18 23 19 41 53 57 60 65 63 51 40 38 34 27 25 25 20 15 11 8 1 11 11 12 6 11 13 20
14 11 24 19 4 36 47 39 40 16 16 4 9 24 8 14 18 17 21 47 53 60 63 65 62 52 46 43 36 31 28 28 23 17 17 9 4 8 8 11 4 7 16 21
20 11 8 8 11 8 30 46 32 13 7 13 11 17 2 8 15 32 32 49 56 60 62 64 63 57 52 47 38 37 31 26 23 19 19 12 4 5 8 10 10 11 19 23
17 10 31 30 13 10 10 35 37 29 19 23 19 11 6 6 15 13 27 51 63 65 69 67 65 60 55 50 41 37 35 29 26 22 22 16 5 9 8 10 18 20 26 30
9 8 12 42 38 11 11 22 40 41 40 30 31 18 14 16 20 31 47 49 55 60 66 68 68 62 59 55 43 34 37 34 31 24 23 17 17 15 16 16 27 29 31 30
13 9 21 15 30 47 38 10 39 41 23 21 16 17 15 15 25 23 45 54 57 67 74 71 68 63 62 58 47 40 42 37 35 27 24 20 27 20 19 22 35 32 28 26
5 9 20 16 18 17 30 45 15 21 18 28 15 17 14 9 21 29 46 62 66 73 79 77 72 67 62 60 51 47 44 39 38 31 26 30 31 19 20 20 28 27 24 19
15 11 7 10 5 15 19 15 29 20 17 20 5 19 26 25 60 69 81 83 71 72 78 75 72 68 61 58 55 49 44 42 40 38 30 34 34 28 28 19 21 22 24 19
23 10 7 5 7 8 6 15 13 5 11 15 16 17 18 37 32 16 65 80 80 73 74 73 67 63 57 58 57 54 51 45 44 44 37 37 36 37 29 25 24 18 15 17
25 25 6 8 5 15 10 36 41 21 6 31 34 27 4 29 17 12 68 75 76 72 66 71 67 66 60 60 60 60 58 53 53 47 42 36 44 41 33 26 21 20 13 9
16 2 10 5 8 5 32 43 50 16 10 42 51 44 37 14 33 73 75 82 79 73 65 66 71 69 65 64 66 65 63 59 50 49 44 38 47 47 39 31 27 22 21 10
4 11 3 3 6 5 52 18 16 12 31 44 57 49 47 51 54 62 66 73 83 81 66 64 70 71 71 68 71 70 67 52 50 55 49 44 46 53 46 37 33 26 21 20
5 6 7 6 7 4 30 8 17 22 30 46 54 63 54 41 51 61 67 74 86 91 76 69 70 74 74 74 74 74 66 58 56 59 53 51 46 50 46 46 41 36 28 24
3 7 4 16 3 15 30 14 34 43 44 55 58 55 52 30 20 56 69 81 86 96 85 78 76 77 78 80 78 69 68 62 60 62 54 54 58 54 54 48 46 43 38 31
7 6 6 10 23 33 22 50 60 58 62 62 72 64 55 47 15 20 66 83 88 96 90 83 82 79 77 76 80 76 72 68 67 62 58 56 60 62 59 58 51 46 42 34
10 6 2 5 32 25 28 52 71 47 57 62 72 75 72 61 47 3 44 76 87 90 95 91 86 81 76 76 80 78 76 74 73 71 68 60 60 68 64 64 62 54 43 35
Wind_Direction_850mb
191 198 212 206 209 213 225 238 247 261 231 229 237 250 275 285 291 278 280 268 255 245 239 235 231 225 205 202 200 201 211 208 215 215 248 313 326 326 327 323 294 288 280 271
199 227 214 212 214 222 235 253 259 279 267 261 278 274 274 286 278 275 268 262 254 242 239 232 224 208 200 199 192 200 202 202 196 217 255 314 321 327 327 324 300 295 284 268
205 226 206 213 218 221 227 232 249 250 292 219 277 280 279 280 291 279 259 260 252 248 253 229 205 197 194 194 189 202 198 192 192 213 265 311 324 322 324 330 303 299 298 262
228 222 193 210 228 216 234 222 242 254 274 272 126 286 292 280 289 285 261 230 247 250 243 215 196 189 191 185 190 195 191 184 193 210 254 314 333 334 331 341 330 305 334 179
208 204 222 231 220 209 239 228 245 252 254 299 275 271 259 269 285 267 265 245 244 242 217 201 193 189 181 181 191 187 182 178 211 222 263 320 339 346 345 349 328 306 204 188
219 212 213 223 210 219 241 237 276 261 209 256 262 164 281 233 227 264 258 283 264 193 191 193 187 177 174 180 185 183 180 189 207 211 238 324 335 343 356 348 330 301 237 194
183 229 228 185 219 218 197 118 267 300 203 228 224 189 238 260 244 241 242 232 182 183 186 188 179 176 176 182 180 180 185 208 202 192 221 323 342 343 8 360 343 310 185 182
194 214 213 203 206 193 212 192 178 203 187 218 187 234 253 236 253 243 241 232 174 179 189 186 179 174 180 180 180 179 193 188 201 199 201 321 341 356 359 355 10 85 170 174
200 231 227 201 198 191 207 206 187 346 199 73 209 286 315 234 269 193 156 169 177 186 189 183 176 180 181 181 180 182 178 172 189 194 219 213 10 19 6 7 24 118 158 171
235 197 212 206 200 214 173 153 194 199 220 237 262 251 230 266 215 187 157 166 176 184 183 179 179 180 181 181 178 183 176 175 185 182 161 135 22 10 19 20 61 113 137 161
226 155 293 179 199 195 171 229 201 163 182 182 156 258 212 220 190 192 199 178 181 184 182 179 180 179 176 176 180 184 179 188 188 181 176 203 286 356 19 17 80 79 150 163
302 213 250 209 220 190 202 206 212 207 212 232 168 257 248 214 197 168 186 182 185 189 180 181 179 177 179 178 180 185 185 194 188 188 188 177 233 345 22 20 106 108 135 157
341 262 240 6 272 183 205 205 202 209 93 212 162 257 286 192 187 181 174 182 187 185 180 181 180 180 184 182 182 187 186 185 184 188 184 182 218 24 32 20 132 126 131 138
339 262 226 221 206 166 171 197 198 196 211 223 234 262 211 141 153 157 175 186 186 182 182 182 183 185 189 187 186 187 186 187 187 182 189 180 132 99 45 56 129 125 122 128
13 269 285 244 232 281 195 180 199 204 209 198 231 208 212 187 183 200 183 179 176 181 185 186 189 189 193 191 187 184 188 190 189 185 188 180 154 119 84 87 122 128 122 125
351 288 337 267 224 228 252 256 197 205 204 215 175 216 202 182 112 144 179 172 180 186 190 191 193 194 197 193 187 183 185 189 190 189 186 174 160 143 103 95 124 120 122 132
254 355 351 267 226 216 247 238 213 213 195 182 169 214 150 124 171 180 183 187 187 191 191 193 196 197 199 195 187 182 184 186 193 191 184 175 172 176 148 108 122 112 102 119
262 273 229 276 239 193 242 198 210 204 200 219 127 168 171 173 196 200 202 194 196 196 194 197 197 198 200 197 191 182 183 188 194 191 187 182 181 183 175 161 133 115 94 97
296 186 250 242 221 280 183 38 17 153 243 26 309 185 194 181 162 213 208 204 201 202 204 197 196 196 197 196 191 185 187 193 196 193 189 187 183 183 180 182 182 160 116 90
354 175 168 340 266 193 15 323 318 292 137 3 358 332 184 138 167 229 210 209 205 207 207 198 197 199 199 197 193 190 191 196 200 195 189 188 187 189 189 194 193 180 160 98
350 106 231 318 275 4 340 320 309 125 286 325 332 329 288 187 192 210 210 212 205 205 209 198 201 201 198 197 195 196 195 199 199 195 188 187 192 193 197 193 192 192 187 168
310 315 3 218 283 283 344 8 53 291 318 324 326 321 310 265 211 205 200 204 200 204 205 203 204 206 204 200 198 199 200 196 197 197 190 190 194 194 200 204 199 201 211 198
224 319 324 321 352 302 357 69 9 359 334 335 325 324 334 290 245 203 201 196 198 200 205 206 205 209 208 204 203 204 204 197 196 199 194 194 192 191 194 202 204 206 207 216
232 308 281 327 103 294 294 312 1 358 345 340 337 337 350 337 237 226 200 194 198 201 204 208 208 213 211 207 207 210 205 198 197 200 197 197 201 197 194 197 204 211 214 217
218 228 345 309 293 327 184 333 339 337 347 348 356 356 347 13 51 214 214 199 201 203 205 211 213 215 218 211 209 212 210 202 199 198 200 200 208 206 203 207 207 210 217 226
193 175 162 236 291 296 280 310 321 321 342 352 359 354 7 16 29 320 220 210 205 207 204 211 216 219 219 218 212 212 211 206 202 198 202 203 207 210 211 213 216 218 223 229